Lid_Strength_Index
7 6 6 6 5 5 5 4 3 3 3 3 3 3 2 3 3 3 4 3 5 6 5 6 6 7 7 7 9 8 8 8 8 10 10 10 10 9 9 8 8 9 9 9 9 10 11 5 5 7 6 5 5 5
6 6 6 6 5 5 4 4 2 2 2 2 2 3 3 3 3 4 3 2 3 5 5 4 4 4 5 5 7 6 8 8 6 9 8 8 10 9 9 11 6 9 7 8 8 7 5 4 5 4 4 5 5 5
6 6 6 6 5 4 3 2 2 2 2 2 3 3 3 3 2 3 4 4 4 6 5 5 5 4 3 4 4 8 6 7 6 5 6 7 9 7 10 9 8 7 6 8 7 5 5 5 4 4 4 4 4 3
6 6 5 5 5 3 2 2 1 1 2 2 2 2 2 2 2 2 3 2 4 5 8 6 3 4 3 3 4 4 5 5 4 5 7 8 9 7 9 8 8 6 6 7 7 5 5 4 4 4 4 4 3 3
5 5 5 4 4 3 2 2 1 1 2 2 2 2 2 2 2 2 2 2 3 5 8 7 4 3 3 3 4 4 5 5 6 7 8 9 8 8 8 8 10 7 7 8 8 4 5 5 4 3 4 6 4 4
4 4 4 3 3 2 2 1 1 2 2 2 2 2 2 2 2 2 6 2 3 4 8 10 5 5 4 4 5 5 5 5 6 7 7 7 6 7 10 11 8 7 6 6 6 4 3 3 3 4 5 5 6 6
3 3 3 3 2 2 2 1 2 2 2 2 2 2 2 2 3 5 6 3 2 3 8 10 9 7 6 5 5 5 5 6 6 7 8 7 7 7 9 11 7 6 5 5 5 5 6 5 6 5 5 5 5 5
2 2 2 2 2 2 1 2 2 2 2 2 2 2 3 3 3 4 2 3 1 4 7 11 10 9 6 8 8 6 7 7 7 7 7 8 7 8 11 8 6 5 5 5 5 5 5 5 5 5 5 5 6 6
2 2 2 2 1 1 1 2 2 2 2 2 2 3 4 4 5 4 2 3 4 6 10 10 11 11 6 6 6 6 6 9 6 9 8 7 8 10 7 6 5 5 5 5 4 5 5 6 5 5 5 6 6 6
2 1 2 1 1 1 2 2 2 2 2 3 4 5 7 4 2 3 5 8 8 8 9 11 8 9 6 7 8 8 8 10 12 10 8 10 10 6 5 4 4 4 4 4 5 5 5 5 5 5 5 5 6 5
1 1 1 1 1 1 2 2 2 2 4 4 5 5 3 3 4 6 9 10 10 11 8 8 7 9 7 10 10 8 10 9 13 10 10 11 10 6 4 4 4 4 4 3 3 3 3 4 4 4 4 4 5 5
1 1 1 1 1 2 2 2 2 3 5 5 5 4 4 7 8 10 11 9 10 10 8 9 9 8 8 7 10 9 11 10 14 8 11 12 7 5 5 5 5 5 5 4 3 3 3 3 4 4 4 4 4 4
1 1 1 1 2 2 2 2 2 3 4 4 6 8 9 10 14 14 14 12 10 7 7 8 9 8 8 8 10 11 12 12 8 12 12 9 6 5 5 4 4 5 5 5 4 3 3 3 2 3 4 4 4 4
1 1 2 2 2 2 2 3 3 4 5 8 10 14 12 13 12 11 10 9 6 6 7 7 7 8 9 11 11 12 11 10 14 15 14 8 6 5 5 5 5 5 4 5 4 4 4 3 3 2 3 3 4 4
2 2 2 2 3 3 3 3 4 4 7 10 10 13 11 9 8 8 8 8 7 6 6 7 7 7 9 11 10 11 12 14 12 12 9 6 6 6 6 6 5 5 5 4 3 4 4 3 3 3 3 3 3 3
2 2 3 3 3 4 4 5 5 5 8 10 10 11 9 10 10 9 9 9 7 8 7 7 9 9 11 10 12 13 13 14 11 8 6 6 6 6 6 5 5 4 3 3 3 4 4 3 3 3 2 2 2 3
3 5 3 4 5 5 5 6 7 9 10 11 11 9 9 10 11 10 10 9 7 9 10 9 11 12 9 12 12 10 12 9 7 6 6 5 6 6 5 5 4 4 4 4 4 4 4 3 3 3 3 2 2 3
4 4 5 5 5 5 6 7 9 10 11 10 11 10 9 9 10 10 9 8 9 9 8 10 8 11 11 12 11 8 7 7 5 5 6 6 5 5 5 5 4 4 4 3 3 3 2 3 3 3 2 2 2 2
4 4 5 5 5 7 9 9 8 12 10 9 9 9 9 9 8 8 8 8 8 7 8 9 10 11 10 8 8 7 6 6 7 7 6 5 4 5 5 4 5 4 3 3 3 4 3 2 2 2 3 3 4 3
5 5 5 4 5 8 10 9 7 10 12 10 9 9 9 9 7 7 7 7 8 8 9 10 10 8 8 7 6 6 7 6 7 8 7 5 4 4 5 5 5 4 4 4 3 5 4 4 4 4 3 3 4 4
5 4 5 5 7 8 9 10 9 9 9 9 8 8 9 7 8 8 8 7 9 9 10 7 6 6 6 5 6 6 6 6 6 7 7 7 6 5 4 4 4 4 5 4 5 5 5 5 4 3 3 4 3 3
4 5 6 5 8 8 9 8 9 8 9 9 9 8 9 9 8 7 6 9 9 8 7 6 6 5 6 6 6 5 5 5 5 5 7 6 6 5 5 5 5 5 5 5 4 5 4 4 3 3 3 3 4 3
5 5 6 7 9 9 9 6 9 9 10 9 7 9 8 8 7 6 8 7 7 5 5 5 4 5 6 5 5 4 3 5 5 5 5 4 4 4 4 4 4 5 5 4 4 4 5 8 5 4 3 3 3 3
5 6 8 8 7 9 6 8 7 8 7 8 9 10 9 8 6 8 10 8 6 4 4 5 4 5 4 5 5 5 5 5 4 4 4 4 5 4 3 3 3 3 3 3 3 4 4 5 7 3 3 3 3 4
9 8 7 11 5 8 9 9 8 8 9 8 9 9 8 6 9 10 10 8 6 6 5 5 4 5 6 5 5 5 4 4 4 4 3 3 3 3 4 3 3 3 3 4 5 4 4 4 5 5 5 4 3 4
11 6 9 7 8 9 8 10 9 9 8 8 7 6 6 8 10 11 10 7 6 6 5 5 6 6 6 5 6 5 5 3 4 4 3 2 3 4 5 5 5 4 3 3 3 4 5 5 5 5 5 6 10 4
10 8 5 3 5 6 8 6 6 8 8 8 8 7 9 11 12 9 6 5 6 5 4 4 4 4 5 4 3 2 2 2 2 2 2 2 2 2 3 5 5 5 3 3 3 3 4 5 5 5 5 4 4 4
6 6 8 7 7 5 8 8 8 8 7 6 6 8 10 10 10 6 5 4 4 3 2 2 2 2 3 3 3 2 2 2 1 1 1 2 2 2 2 3 3 9 4 5 4 4 4 4 4 4 4 5 4 3
6 4 6 8 7 7 7 7 7 5 5 5 7 8 7 5 4 4 3 2 2 2 3 4 3 2 2 1 2 2 1 2 3 4 4 5 4 3 2 2 2 3 3 4 11 8 6 5 5 5 5 4 4 4
7 4 7 7 7 8 6 4 5 4 3 4 3 3 4 3 2 1 2 2 2 3 2 2 2 2 3 3 3 2 1 1 2 3 5 5 4 3 3 2 2 2 2 2 3 4 9 5 6 5 5 6 6 6
5 5 7 7 7 5 4 3 3 3 3 4 3 4 5 3 2 1 2 1 1 2 2 2 3 3 4 4 3 3 3 1 1 1 1 2 2 3 3 3 2 2 2 3 3 3 3 4 4 4 5 5 6 6
5 7 7 8 6 4 3 4 4 5 4 5 5 5 5 4 5 3 1 1 2 2 3 2 2 2 1 1 2 2 8 3 4 3 2 1 1 0 0 0 0 1 1 1 1 1 2 2 2 2 3 2 2 2
6 6 6 6 6 6 4 4 5 6 5 6 5 4 4 5 6 4 1 0 1 1 2 1 1 1 0 1 1 1 3 0 2 8 8 9 10 7 2 1 1 1 1 1 1 1 2 2 2 1 2 2 2 2